[[{"header":{"parameterUnit":"m.s-1","parameterCategory":1,"la1":30.2991,"la2":30.254,"lo1":-89.0895,"lo2":-89.0444,"dy":0.0017,"dx":0.0017,"nx":28,"ny":28,"refTime":"2023-10-12T21:00:00:Z","depth":0,"parameterNumber":2,"parameterNumberName":"U-component_of_WINDS"},"data":[0,0,0,0,0,0,0,0,0,0,0,0,0,0,0,0,0,0,0,0,0,0,0,0,0,0,0,0,0,0,0,0,0,0,0,0,0,0,0,0,0,0,0,0,0,0,0,0,0,0,0,0,0,0,0,0,0,0,0.2988,0.2988,0,0.301,0.301,0.301,0.3074,0.3076,0.3077,0.3078,0.3099,0.3098,0.3097,0,0,0,0,0,0,0,0,0,0,0,0,0,0.3,0.3,0.2988,0.2988,0.2989,0.301,0.301,0.301,0.3074,0.3076,0.3078,0.3079,0.3099,0.3098,0.3097,0,0,0,0,0,0,0,0,0,0,0,0,0,0.3006,0.3,0.2988,0.3023,0.3026,0.301,0.301,0.3011,0.3074,0.3076,0.3078,0.308,0.31,0.3098,0.3097,0.3048,0,0,0.3094,0.3093,0,0,0,0,0,0,0,0,0.3005,0.3005,0.3018,0.3021,0.3024,0.3042,0.3022,0.3023,0.3073,0.3056,0.3079,0.3081,0.3078,0.3079,0.3078,0.3049,0.305,0.3094,0.3093,0.3092,0.3092,0,0,0,0,0,0,0,0.3005,0.3005,0.2997,0.3018,0.3022,0.3037,0.304,0.3023,0.3055,0.3057,0.3062,0.3064,0.308,0.3079,0.3079,0.305,0.3094,0.3093,0.3092,0.3092,0.2982,0.298,0,0,0,0,0,0,0.3,0.3004,0.2996,0.2997,0.302,0.3035,0.3039,0.3034,0.3055,0.306,0.3062,0.3067,0.308,0.308,0.308,0.3024,0.3092,0.3091,0.3091,0.2984,0.2981,0.2979,0,0,0,0,0,0,0.3,0.2998,0.2995,0.3002,0.3003,0.3033,0.3027,0.3033,0.3032,0.3059,0.3065,0.3055,0.3082,0.3082,0.3056,0.3026,0.3091,0.309,0.2987,0.2983,0.298,0.2911,0,0,0,0,0,0,0.3,0.2998,0.298,0.3001,0.3002,0.297,0.3025,0.3032,0.303,0.3037,0.3054,0.3059,0.3083,0.3057,0.3055,0.3025,0.3089,0.2989,0.2985,0.2981,0.2916,0.2906,0.2897,0,0,0,0,0,0.3,0.2959,0.2979,0.2977,0.298,0.2969,0.2969,0.2999,0.3028,0.3009,0.3026,0.3058,0.3029,0.3054,0.3052,0.3021,0.2992,0.2986,0.2981,0.292,0.2908,0.2897,0,0,0,0,0,0,0.2933,0.2963,0.2985,0.2949,0.2956,0.2979,0.2957,0.2985,0.2983,0.2989,0.3026,0.3029,0.2998,0.3007,0.3034,0.2975,0.3016,0.301,0.297,0.2958,0.2949,0.2947,0.3088,0,0,0,0,0,0.2914,0.2903,0.2929,0.2896,0.2898,0.2927,0.2923,0.2946,0.2954,0.2957,0.2972,0.2978,0.2971,0.2965,0.296,0.2918,0.2922,0.2896,0.2886,0.2878,0.2873,0.2851,0.284,0.2962,0.2963,0.2963,0,0,0.2875,0.289,0.288,0.2882,0.289,0.2877,0.2929,0.2913,0.2904,0.2954,0.2931,0.2942,0.2952,0.2917,0.2903,0.2924,0.284,0.2872,0.2865,0.2864,0.2845,0.2833,0.2823,0.2959,0.296,0.296,0,0,0.2797,0.2807,0.278,0.2787,0.2799,0.2819,0.2812,0.2832,0.2841,0.2818,0.2856,0.2845,0.2832,0.2837,0.2838,0.2762,0.2791,0.2759,0.2708,0.2687,0.2677,0.2669,0.2642,0.2631,0.2754,0.2753,0.2753,0,0.2746,0.2729,0.2763,0.2745,0.2744,0.2791,0.2763,0.2768,0.2777,0.2776,0.2799,0.2783,0.2793,0.2761,0.2742,0.2741,0.2735,0.2757,0.2676,0.2668,0.2661,0.2635,0.2625,0.275,0.275,0.275,0.2751,0,0.2666,0.2654,0.2631,0.2639,0.2636,0.2613,0.2643,0.2636,0.2659,0.2676,0.2652,0.2665,0.2663,0.2658,0.2679,0.2628,0.2641,0.267,0.2711,0.2644,0.2621,0.2611,0.2744,0.2745,0.2746,0.2747,0,0,0.2546,0.2574,0.2565,0.2569,0.2585,0.2576,0.2555,0.2554,0.2547,0.2552,0.2535,0.2523,0.255,0.2551,0.2574,0.2555,0.2494,0.2586,0.2587,0.2568,0.2438,0.2415,0.2404,0.2513,0.2511,0.251,0.2437,0,0.2472,0.2439,0.2469,0.243,0.2419,0.2462,0.2445,0.2452,0.2468,0.246,0.2477,0.2467,0.2504,0.2504,0.2488,0.2504,0.2468,0.251,0.2497,0.2496,0.2493,0.2391,0.2368,0.2298,0.2428,0.2426,0.2425,0,0.2381,0.2383,0.2342,0.2362,0.2358,0.2341,0.2343,0.2335,0.2345,0.2357,0.2358,0.2386,0.2367,0.2408,0.2382,0.241,0.2406,0.2414,0.2412,0.2411,0.2456,0.2388,0.2277,0.2266,0.2411,0.2412,0.2413,0,0.2297,0.2289,0.2264,0.2266,0.2288,0.2275,0.2284,0.2296,0.2293,0.2294,0.2293,0.2291,0.229,0.2288,0.2315,0.2342,0.2285,0.2328,0.2294,0.2293,0.228,0.228,0.2166,0.2278,0.2278,0.2278,0.2278,0,0.2212,0.2185,0.2227,0.2211,0.2183,0.2217,0.2188,0.2201,0.2211,0.2199,0.2236,0.2224,0.226,0.2251,0.2272,0.2247,0.2246,0.2255,0.2261,0.2251,0.225,0.2249,0.2255,0.2275,0.2276,0.2276,0.2277,0,0.2113,0.214,0.2115,0.2138,0.2143,0.2121,0.2141,0.2127,0.2145,0.2129,0.2127,0.2155,0.2146,0.2173,0.2168,0.2182,0.2145,0.2159,0.2142,0.2146,0.2111,0.2114,0.1992,0.1977,0.2098,0.2097,0.2096,0,0.2056,0.2037,0.2058,0.2053,0.2059,0.205,0.2048,0.2081,0.2077,0.2087,0.2072,0.2066,0.2064,0.2048,0.2067,0.2064,0.2078,0.2035,0.2077,0.2068,0.2077,0.2077,0.2075,0.2026,0.2025,0.2024,0.2023,0,0.1952,0.1967,0.1963,0.1963,0.1959,0.1961,0.1965,0.1958,0.1994,0.1987,0.1979,0.1977,0.1973,0.1967,0.1968,0.1976,0.2004,0.2009,0.2001,0.1991,0.1982,0.1986,0.2118,0.2012,0.2013,0.2014,0.2014,0.2015,0.1873,0.1858,0.1871,0.1865,0.1871,0.1875,0.1863,0.188,0.1874,0.1874,0.1893,0.1881,0.1891,0.1895,0.1901,0.1891,0.1911,0.1899,0.1896,0.1892,0.1886,0.1984,0.1891,0.1892,0.1892,0.1892,0.1893,0,0.1771,0.1782,0.1776,0.1781,0.1776,0.1805,0.1811,0.1804,0.1793,0.1801,0.1798,0.1788,0.1783,0.1802,0.1799,0.1787,0.18,0.1785,0.1786,0.1788,0.1869,0.1876,0.1775,0.1775,0.1775,0.1775,0.1775,0.1775,0.1718,0.1694,0.171,0.169,0.17,0.1689,0.169,0.1693,0.1699,0.1687,0.1683,0.1696,0.1708,0.1706,0.1702,0.1708,0.1705,0.1685,0.1695,0.177,0.1782,0.1793,0.18,0.1684,0.1684,0.1614,0.1614,0.1613]},{"header":{"parameterUnit":"m.s-1","parameterCategory":1,"la1":30.2991,"la2":30.254,"lo1":-89.0895,"lo2":-89.0444,"dy":0.0017,"dx":0.0017,"nx":28,"ny":28,"refTime":"2023-10-12T21:00:00:Z","depth":0,"parameterNumber":3,"parameterNumberName":"V-component_of_WINDS"},"data":[0,0,0,0,0,0,0,0,0,0,0,0,0,0,0,0,0,0,0,0,0,0,0,0,0,0,0,0,0,0,0,0,0,0,0,0,0,0,0,0,0,0,0,0,0,0,0,0,0,0,0,0,0,0,0,0,0,0,1.0474,1.0473,0,1.0404,1.0404,1.0403,1.0393,1.0393,1.0394,1.0395,1.0319,1.0317,1.0314,0,0,0,0,0,0,0,0,0,0,0,0,0,1.0595,1.0593,1.0474,1.0473,1.0472,1.0404,1.0404,1.0403,1.0393,1.0393,1.0394,1.0395,1.032,1.0317,1.0314,0,0,0,0,0,0,0,0,0,0,0,0,0,1.0535,1.0592,1.0474,1.0459,1.0457,1.0405,1.0403,1.0402,1.0392,1.0393,1.0394,1.0395,1.0321,1.0317,1.0313,1.027,0,0,1.0302,1.03,0,0,0,0,0,0,0,0,1.0539,1.0531,1.0462,1.046,1.0458,1.0408,1.0418,1.0358,1.0392,1.0417,1.0395,1.0396,1.0348,1.0342,1.0326,1.0266,1.0263,1.0301,1.0299,1.0297,1.0296,0,0,0,0,0,0,0,1.0543,1.0534,1.0446,1.0461,1.0459,1.0455,1.0447,1.0407,1.0378,1.0415,1.0414,1.0406,1.0347,1.033,1.0325,1.0262,1.0301,1.0298,1.0295,1.0294,1.0161,1.016,0,0,0,0,0,0,1.055,1.0537,1.0449,1.0444,1.0502,1.0452,1.0444,1.0423,1.0378,1.0372,1.0405,1.0406,1.0336,1.0329,1.0322,1.0266,1.0297,1.0293,1.0291,1.0162,1.0161,1.016,0,0,0,0,0,0,1.0553,1.0542,1.0451,1.0491,1.0479,1.0449,1.0426,1.0421,1.0405,1.0371,1.0365,1.0394,1.0337,1.0327,1.0283,1.0264,1.0292,1.0288,1.0164,1.0162,1.016,1.0156,0,0,0,0,0,0,1.0556,1.0543,1.0527,1.049,1.0477,1.0414,1.0425,1.0419,1.0398,1.0398,1.0359,1.0353,1.0337,1.0289,1.0279,1.0259,1.0285,1.0165,1.0163,1.0161,1.0157,1.0154,1.0151,0,0,0,0,0,1.0561,1.0528,1.0527,1.0516,1.0456,1.0413,1.0405,1.0389,1.0397,1.038,1.0358,1.0354,1.0268,1.0284,1.0273,1.0251,1.0166,1.0164,1.0161,1.0159,1.0155,1.0151,0,0,0,0,0,0,1.0562,1.0523,1.0521,1.0476,1.0448,1.0412,1.0389,1.0385,1.0353,1.0355,1.0334,1.0325,1.0281,1.0262,1.0281,1.0206,1.0218,1.0213,1.022,1.0216,1.0213,1.0217,1.0282,0,0,0,0,0,1.0558,1.0527,1.0494,1.0458,1.0444,1.0419,1.04,1.039,1.036,1.0348,1.0323,1.0293,1.0259,1.0237,1.0204,1.0156,1.0146,1.0135,1.0132,1.013,1.0125,1.0097,1.0091,1.0151,1.0151,1.0151,0,0,1.0547,1.0522,1.0504,1.0457,1.0435,1.0402,1.0409,1.0375,1.035,1.0342,1.0298,1.0279,1.0244,1.0198,1.0176,1.018,1.0107,1.0127,1.0125,1.0121,1.0093,1.0088,1.0083,1.0149,1.015,1.015,0,0,1.051,1.0489,1.0456,1.0433,1.04,1.0384,1.0376,1.034,1.0328,1.0284,1.0277,1.0247,1.0189,1.0164,1.0144,1.01,1.0094,1.009,1.0072,1.0045,1.004,1.0036,1.0018,1.0012,1.0085,1.0085,1.0085,0,1.0501,1.0453,1.0439,1.0405,1.0384,1.0377,1.0341,1.032,1.0277,1.0262,1.0269,1.0196,1.0172,1.0119,1.0108,1.0093,1.0081,1.0093,1.0042,1.0038,1.0033,1.0016,1.0009,1.0085,1.0085,1.0085,1.0085,0,1.0442,1.0409,1.0386,1.0345,1.0322,1.0288,1.0267,1.0245,1.0237,1.022,1.0175,1.0147,1.0108,1.0095,1.0086,1.004,1.0044,1.0047,1.0057,1.0027,1.001,1.0004,1.0084,1.0084,1.0084,1.0085,0,0,1.0401,1.0355,1.0346,1.0328,1.0291,1.0264,1.0229,1.0192,1.0173,1.0144,1.0113,1.0065,1.0067,1.0045,1.0034,1.001,0.9974,1.0016,1.0015,1.0007,0.9919,0.9915,0.9908,0.9972,0.9971,0.997,0.9921,0,1.0359,1.0297,1.0284,1.023,1.0198,1.0192,1.0162,1.0135,1.0118,1.0088,1.007,1.0035,1.0043,1.0029,1.0005,0.9984,0.9956,0.9988,0.994,0.9939,0.9947,0.9899,0.9895,0.985,0.9915,0.9914,0.9913,0,1.03,1.0271,1.0214,1.0181,1.0167,1.014,1.0105,1.0077,1.0046,1.0036,1.0011,1.0003,0.9965,0.998,0.9927,0.9948,0.9929,0.9915,0.9913,0.9906,0.9922,0.9888,0.9836,0.9828,0.9903,0.9904,0.9904,0,1.0273,1.022,1.0179,1.0163,1.0124,1.0105,1.0088,1.0059,1.0037,1.0006,0.9991,0.9957,0.9936,0.9909,0.9891,0.9904,0.9838,0.9852,0.9827,0.9827,0.981,0.9811,0.9752,0.9803,0.9803,0.9803,0.9803,0,1.0225,1.019,1.0166,1.0141,1.0101,1.0086,1.0047,1.0029,1.0004,0.9973,0.9967,0.9938,0.9918,0.9886,0.9872,0.9829,0.9821,0.981,0.9806,0.9808,0.9809,0.9793,0.9794,0.9801,0.9802,0.9802,0.9802,0,1.0187,1.017,1.0125,1.0092,1.0083,1.0055,1.0027,1.0001,0.9986,0.9947,0.9938,0.9912,0.9875,0.9855,0.9809,0.9799,0.975,0.9749,0.976,0.9758,0.9732,0.9734,0.9658,0.9646,0.9708,0.9707,0.9707,0,1.0156,1.0129,1.0094,1.0074,1.0057,1.0025,1.0003,0.9988,0.9965,0.9929,0.9907,0.987,0.9839,0.9779,0.9756,0.972,0.9716,0.9692,0.9711,0.9714,0.9713,0.9713,0.9709,0.9688,0.9687,0.9687,0.9686,0,1.0102,1.0095,1.0065,1.0031,1.0006,0.9979,0.9951,0.9935,0.9915,0.989,0.9853,0.9829,0.9782,0.9744,0.9706,0.9687,0.9682,0.9682,0.9673,0.9674,0.968,0.9674,0.9748,0.9682,0.9683,0.9683,0.9683,0.9684,1.0064,1.004,1.0011,0.9977,0.9956,0.9931,0.9905,0.9887,0.9855,0.9816,0.981,0.9769,0.9739,0.9689,0.9669,0.9636,0.964,0.9629,0.9626,0.9622,0.962,0.9689,0.9629,0.9629,0.963,0.963,0.963,0,1.0007,0.9989,0.9959,0.9921,0.9894,0.9896,0.9866,0.9842,0.9807,0.9781,0.9751,0.9707,0.9671,0.9646,0.9609,0.9587,0.9584,0.9578,0.9577,0.9572,0.9619,0.9629,0.9581,0.9581,0.9581,0.9581,0.9581,0.9581,0.9974,0.9932,0.9922,0.9868,0.985,0.9811,0.9794,0.9771,0.9749,0.9701,0.9671,0.9656,0.9629,0.959,0.9556,0.955,0.9535,0.9528,0.9521,0.9564,0.9569,0.9574,0.9583,0.9526,0.9526,0.9477,0.9477,0.9476]}]]